Location: Kott?ru
(16.6209°N, 80.6208°E)
Time: 00:32:57
(UTC+00:00)

Okean-O - Pass Details

Date: 18 September 2020
Orbit: 639 x 641 km, 98.2° (Epoch: 26 October)

Event Time Altitude Azimuth Distance (km) Brightness Sun altitude
Rises 13:05:14 0° 158° (SSE) 2,931 5.8 -7.6°
Reaches altitude 10° 13:07:29 10° 153° (SSE) 2,024 4.9 -8.2°
Maximum altitude 13:11:46 52° 77° (ENE) 796 2.8 -9.2°
Drops below altitude 10° 13:16:03 10° 1° (N) 2,028 5.3 -10.2°
Sets 13:18:18 0° 356° (N) 2,938 6.2 -10.8°
